Tiempo atmosférico en la estación meteorológica de Miguelañez, Segovia (870 m.)



Fecha
DESCASC
Temp. máxima en grados centígrados (hora)
DESCASC
Temp. mínima en grados centígrados (hora)
DESCASC
Temp. media en grados centígrados
DESCASC
Racha de viento máxima en m/sg (hora)
DESCASC
Velocidad máxima media en intervalos de 10 minutos(hora)
DESCASC
Precipitaciones diarias en mm
DESCASC
Precipitaciones de 00:00 a 06:00 en mm
DESCASC
Precipitaciones de 06:00 a 12:00 en mm
DESCASC
Precipitaciones de 12:00 a 18:00 en mm
DESCASC
Precipitaciones de 18:00 a 24:00 en mm
DESCASC
14-12-2019 10.7 (14:10) 7.5 (09:20) 9.1 12.5 (00:40) 8.33 (00:40) 0 0 0 0 0
13-12-2019 11.4 (14:00) 8.6 (08:20) 10 17.5 (10:20) 12.22 (02:10) 0 0 0 0 0
12-12-2019 10.1 (23:00) 3 (00:20) 6.6 19.17 (19:40) 13.89 (19:40) 0.4 0 0.2 0.2 0
11-12-2019 8.4 (06:10) 3.1 (00:00) 5.7 12.22 (14:40) 8.89 (16:00) 2.8 0 2.8 0 0
10-12-2019 10.7 (15:00) -0.6 (07:20) 5 6.11 (04:40) 4.72 (04:40) 0 0 0 0 0
09-12-2019 9.7 (14:30) 1.4 (23:40) 5.5 6.67 (10:00) 4.44 (09:10) 0 0 0 0 0
08-12-2019 9.6 (13:00) 2.6 (00:00) 6.1 7.5 (11:00) 5.83 (20:20) 1.4 0 0 1.2 0.2
07-12-2019 12.1 (16:30) 0.3 (00:00) 6.2 5.83 (05:50) 4.72 (05:40) 0 0 0 0 0
06-12-2019 11.5 (14:50) 0.4 (00:00) 6 5.83 (00:10) 4.72 (00:30) 0 0 0 0 0
05-12-2019 11 (15:30) 1.3 (00:00) 6.1 7.78 (14:20) 5.83 (16:10) 0 0 0 0 0
04-12-2019 5.8 (17:00) -1.1 (08:30) 2.4 6.94 (19:40) 5.28 (19:30) 0 0 0 0 0
03-12-2019 6 (16:10) -1.5 (-00:0) 2.3 6.67 (23:59) 4.44 (23:59) 0 0 0 0 0
02-12-2019 9.4 (15:20) 0.4 (00:00) 4.9 10.28 (16:30) 7.78 (16:40) 0.2 0 0 0.2 0
01-12-2019 7.3 (14:10) 3.5 (00:00) 5.4 7.22 (08:10) 5.56 (07:00) 3.8 0 2.2 0.2 1.4
30-11-2019 14.8 (12:00) 5.2 (00:00) 10 16.11 (15:40) 10.28 (14:40) 8.4 0.2 0 6.6 1.6
29-11-2019 13.3 (14:50) 10.1 (00:00) 11.7 13.06 (02:40) 8.33 (01:30) 7.2 0 0.6 0.2 6.4
28-11-2019 12.5 (13:50) 7.7 (05:50) 10.1 13.61 (17:30) 9.17 (17:40) 0 0 0 0 0
27-11-2019 11.6 (13:50) 7.1 (00:00) 9.4 20 (03:00) 11.11 (03:00) 0 0 0 0 0
26-11-2019 16.1 (14:40) 7.8 (00:00) 12 17.5 (23:30) 11.67 (23:59) 1.2 0 0.6 0.4 0.2
25-11-2019 13.3 (13:50) 9 (07:10) 11.2 15 (13:40) 10 (13:20) 0.4 0.2 0 0.2 0
24-11-2019 10.3 (23:59) 2.5 (00:00) 6.4 9.17 (23:59) 6.39 (15:20) 0 0 0 0 0
23-11-2019 9.2 (14:50) 3.2 (00:00) 6.2 19.72 (04:00) 13.61 (04:00) 2.8 2.8 0 0 0
22-11-2019 13.6 (16:00) 5.5 (00:00) 9.6 20.83 (11:20) 16.11 (11:10) 3.6 0.2 1.2 1.8 0.4
21-11-2019 8.4 (15:30) 3.1 (00:00) 5.7 9.17 (16:40) 6.39 (14:20) 1 0.2 0.4 0.4 0
20-11-2019 7.4 (13:10) 2.4 (05:50) 4.9 9.17 (13:40) 6.39 (14:20) 2.8 0 0.2 2.4 0.2
19-11-2019 8.1 (14:20) 0.3 (00:00) 4.2 5.56 (23:00) 3.61 (23:10) 0 0 0 0 0
18-11-2019 7.2 (16:20) 0.2 (00:00) 3.7 6.11 (01:30) 4.72 (01:20) 0 0 0 0 0
17-11-2019 9.3 (16:10) 2.3 (00:00) 5.8 14.72 (15:40) 10.28 (15:40) 3.2 0 1.6 1.6 0
16-11-2019 7.2 (16:30) -0.7 (-00:0) 3.2 9.17 (15:00) 6.67 (16:40) 0 0 0 0 0
15-11-2019 6.6 (15:40) 0.3 (00:00) 3.4 13.89 (03:00) 10 (00:40) 0.2 0 0.2 0 0

Gráficas

Temp. máximas Temp. mínimas Temp. medias Precipitaciones Rachas de viento máximas Velocidades máximas media en intervalos de 10 minutos

Datos horarios

Fecha y hora oficial Temperatura (ºC) Velocidad del viento (km/h) Dirección del viento Racha (km/h) Dirección de racha Precipitación (mm) Presión (hPa) Tendencia (hPa) Humedad (%)
2019-12-14 23:00:00 8.8 14 Sudoeste 27 Sur 0 -- -- 75
2019-12-14 22:00:00 9 18 Sur 29 Sur 0 -- -- 71
2019-12-14 21:00:00 9.1 19 Sur 29 Sur 0 -- -- 73
2019-12-14 20:00:00 9.1 17 Sur 26 Sur 0 -- -- 78
2019-12-14 19:00:00 9.4 13 Sudoeste 21 Sudoeste 0 -- -- 81
2019-12-14 18:00:00 9.7 18 Sudoeste 27 Oeste 0 -- -- 78
2019-12-14 17:00:00 10.1 14 Oeste 26 Sudoeste 0 -- -- 77
2019-12-14 16:00:00 10.4 17 Sudoeste 27 Sudoeste 0 -- -- 75
2019-12-14 15:00:00 10.5 19 Sudoeste 30 Sur 0 -- -- 73
2019-12-14 14:00:00 10.4 21 Sudoeste 39 Sudoeste 0 -- -- 76
2019-12-14 13:00:00 9.8 22 Sudoeste 30 Sudoeste 0 -- -- 77
2019-12-14 12:00:00 9.3 21 Sudoeste 31 Oeste 0 -- -- 79
2019-12-14 11:00:00 8.6 12 Sur 21 Sur 0 -- -- 77
2019-12-14 10:00:00 7.8 15 Sur 24 Sudoeste 0 -- -- 81
2019-12-14 09:00:00 7.7 17 Sudoeste 26 Sudoeste 0 -- -- 81
2019-12-14 08:00:00 7.8 12 Sudoeste 22 Sudoeste 0 -- -- 80
2019-12-14 07:00:00 7.9 15 Sudoeste 23 Sudoeste 0 -- -- 82
2019-12-14 06:00:00 8 17 Sudoeste 29 Sudoeste 0 -- -- 82
2019-12-14 05:00:00 8.1 19 Sudoeste 32 Sudoeste 0 -- -- 83
2019-12-14 04:00:00 8.1 21 Sudoeste 31 Sudoeste 0 -- -- 85
2019-12-14 03:00:00 8.1 20 Sudoeste 35 Oeste 0 -- -- 88
2019-12-14 02:00:00 8.1 14 Sudoeste 34 Oeste 0 -- -- 88
2019-12-14 01:00:00 8.9 29 Oeste 45 Sudoeste 0 -- -- 86
2019-12-14 00:00:00 9 25 Sudoeste 44 Oeste 0 -- -- 87
2019-12-13 23:00:00 9.2 34 Oeste 50 Oeste 0 -- -- 87
2019-12-13 22:00:00 9.5 29 Sudoeste 43 Sudoeste 0 -- -- 88
2019-12-13 21:00:00 9.7 26 Sudoeste 39 Sudoeste 0 -- -- 89
2019-12-13 20:00:00 9.3 25 Sudoeste 40 Oeste 0 -- -- 90
2019-12-13 19:00:00 9.7 31 Sudoeste 40 Oeste 0 -- -- 88
2019-12-13 18:00:00 10.2 28 Sudoeste 46 Oeste 0 -- -- 87
2019-12-13 17:00:00 11.1 36 Oeste 52 Oeste 0 -- -- 86
2019-12-13 16:00:00 11.4 37 Oeste 52 Oeste 0 -- -- 84
2019-12-13 15:00:00 11.2 35 Oeste 63 Oeste 0 -- -- 85
2019-12-13 14:00:00 11.4 42 Oeste 55 Oeste 0 -- -- 84
2019-12-13 13:00:00 11.1 37 Oeste 55 Oeste 0 -- -- 83
2019-12-13 12:00:00 10.7 32 Oeste 55 Oeste 0 -- -- 83
2019-12-13 11:00:00 10.2 36 Oeste 63 Oeste 0 -- -- 84
2019-12-13 10:00:00 9.5 36 Sudoeste 51 Oeste 0 -- -- 84
2019-12-13 09:00:00 8.7 32 Sudoeste 51 Sudoeste 0 -- -- 86
2019-12-13 08:00:00 8.9 35 Sudoeste 51 Oeste 0 -- -- 86
2019-12-13 07:00:00 9.5 38 Sudoeste 54 Sudoeste 0 -- -- 86
2019-12-13 06:00:00 9.7 36 Sudoeste 54 Sudoeste 0 -- -- 88
2019-12-13 05:00:00 10 39 Sudoeste 54 Oeste 0 -- -- 90
2019-12-13 04:00:00 10.3 40 Oeste 55 Sudoeste 0 -- -- 90
2019-12-13 03:00:00 10.3 38 Oeste 60 Sudoeste 0 -- -- 91
2019-12-13 02:00:00 10.3 43 Oeste 60 Oeste 0 -- -- 90
2019-12-13 01:00:00 10.3 40 Sudoeste 58 Sudoeste 0 -- -- 90
2019-12-13 00:00:00 10.1 41 Sudoeste 60 Oeste 0 -- -- 91
2019-12-12 23:00:00 10.1 44 Sudoeste 62 Sudoeste 0 -- -- 90
2019-12-12 22:00:00 9.7 41 Sudoeste 59 Oeste 0 -- -- 91
2019-12-12 21:00:00 9.4 42 Sudoeste 63 Sudoeste 0 -- -- 91
2019-12-12 20:00:00 8.8 47 Oeste 69 Sudoeste 0 -- -- 92
2019-12-12 19:00:00 8.2 42 Sudoeste 64 Sudoeste 0 -- -- 91
2019-12-12 18:00:00 7.2 41 Sudoeste 60 Oeste 0 -- -- 92
2019-12-12 17:00:00 6.7 42 Sudoeste 60 Sudoeste 0 -- -- 92
2019-12-12 16:00:00 6.5 43 Sudoeste 60 Sudoeste 0 -- -- 91
2019-12-12 15:00:00 6.7 40 Sudoeste 61 Sudoeste 0 -- -- 88
2019-12-12 14:00:00 6.6 37 Sudoeste 60 Sudoeste 0 -- -- 86
2019-12-12 13:00:00 6.1 32 Sudoeste 49 Sudoeste 0.2 -- -- 89
2019-12-12 12:00:00 5.8 31 Sudoeste 48 Sudoeste 0.2 -- -- 88
2019-12-12 11:00:00 5.8 30 Sudoeste 45 Sudoeste 0 -- -- 85
2019-12-12 10:00:00 5.4 28 Sudoeste 43 Sudoeste 0 -- -- 87
2019-12-12 09:00:00 4.9 25 Sudoeste 37 Sudoeste 0 -- -- 90
2019-12-12 08:00:00 4.6 28 Sudoeste 40 Sudoeste 0 -- -- 91
2019-12-12 07:00:00 4.2 23 Sudoeste 38 Sudoeste 0 -- -- 91
2019-12-12 06:00:00 3.9 25 Sudoeste 39 Oeste 0 -- -- 91
2019-12-12 05:00:00 3.5 28 Oeste 39 Sudoeste 0 -- -- 92
2019-12-12 04:00:00 3.6 18 Sudoeste 34 Sudoeste 0 -- -- 91
2019-12-12 03:00:00 3.6 19 Sudoeste 36 Sudoeste 0 -- -- 91
2019-12-12 02:00:00 3.3 25 Oeste 41 Sudoeste 0 -- -- 90
2019-12-12 01:00:00 3.1 26 Sudoeste 36 Sudoeste 0 -- -- 89
2019-12-12 00:00:00 3.1 23 Sudoeste 37 Sudoeste 0 -- -- 86
2019-12-11 23:00:00 3.4 26 Oeste 35 Oeste 0 -- -- 82
2019-12-11 22:00:00 3.4 24 Sudoeste 33 Sudoeste 0 -- -- 83
2019-12-11 21:00:00 3.7 23 Oeste 32 Sudoeste 0 -- -- 82
2019-12-11 20:00:00 3.8 21 Sudoeste 31 Oeste 0 -- -- 82
2019-12-11 19:00:00 5 24 Oeste 37 Oeste 0 -- -- 74
2019-12-11 18:00:00 5.7 16 Oeste 33 Noroeste 0 -- -- 78
2019-12-11 17:00:00 6.7 27 Oeste 42 Noroeste 0 -- -- 66
2019-12-11 16:00:00 7.5 32 Oeste 44 Oeste 0 -- -- 59
2019-12-11 15:00:00 7.5 25 Noroeste 44 Noroeste 0 -- -- 72
2019-12-11 14:00:00 7.1 28 Oeste 35 Oeste 0 -- -- 84
2019-12-11 13:00:00 5.8 24 Oeste 36 Oeste 0 -- -- 89
2019-12-11 12:00:00 5.9 21 Noroeste 41 Oeste 0 -- -- 93
2019-12-11 11:00:00 5.2 27 Oeste 37 Oeste 0 -- -- 96
2019-12-11 10:00:00 4.7 27 Oeste 38 Oeste 0.6 -- -- 96
2019-12-11 09:00:00 4.7 11 Oeste 19 Oeste 1.8 -- -- 90
2019-12-11 08:00:00 6.4 13 Oeste 21 Sur 0.4 -- -- 71
2019-12-11 07:00:00 8.1 14 Sur 27 Sudoeste 0 -- -- 40
2019-12-11 06:00:00 8.3 14 Sur 23 Sur 0 -- -- 38
2019-12-11 05:00:00 7.9 15 Sur 25 Sudoeste 0 -- -- 44
2019-12-11 04:00:00 7.9 18 Sur 27 Sudoeste 0 -- -- 46
2019-12-11 03:00:00 7.9 18 Sudoeste 28 Sudoeste 0 -- -- 49
2019-12-11 02:00:00 7.5 18 Sudoeste 24 Sudoeste 0 -- -- 52
2019-12-11 01:00:00 7.8 14 Sur 21 Sur 0 -- -- 54
2019-12-11 00:00:00 7.8 17 Sur 21 Sur 0 -- -- 59
2019-12-10 23:00:00 5.9 13 Sur 20 Sur 0 -- -- 75
2019-12-10 22:00:00 5.2 4 Sur 9 Sur 0 -- -- 79
2019-12-10 21:00:00 6.5 4 Oeste 11 Sudeste 0 -- -- 76
2019-12-10 20:00:00 5.6 6 Sudeste 8 Sudeste 0 -- -- 84
2019-12-10 19:00:00 6.3 2 Sudeste 8 Sudeste 0 -- -- 82
2019-12-10 18:00:00 7.7 2 Oeste 5 Sudeste 0 -- -- 75
2019-12-10 17:00:00 8.6 4 Oeste 11 Oeste 0 -- -- 74
2019-12-10 16:00:00 9.8 8 Oeste 11 Oeste 0 -- -- 64
2019-12-10 15:00:00 10.7 6 Oeste 12 Noroeste 0 -- -- 59
2019-12-10 14:00:00 9.7 2 Norte 10 Oeste 0 -- -- 65
2019-12-10 13:00:00 8.5 7 Oeste 13 Oeste 0 -- -- 70
2019-12-10 12:00:00 7.6 6 Este 10 Sudeste 0 -- -- 78
2019-12-10 11:00:00 2.7 2 Oeste 17 Sudeste 0 -- -- 91
2019-12-10 10:00:00 2.1 15 Sudeste 19 Sudeste 0 -- -- 88
2019-12-10 09:00:00 0.9 14 Sudeste 19 Sudeste 0 -- -- 91
2019-12-10 08:00:00 0.1 14 Sudeste 20 Sudeste 0 -- -- 96
2019-12-10 07:00:00 0 8 Sudeste 18 Sudeste 0 -- -- 95
2019-12-10 06:00:00 -0.3 4 Sudeste 5 Sudeste 0 -- -- 92
2019-12-10 05:00:00 0.7 4 Sur 22 Sudeste 0 -- -- 93
2019-12-10 04:00:00 0.3 16 Sudeste 19 Sudeste 0 -- -- 94
2019-12-10 03:00:00 0.3 9 Sudeste 15 Sudeste 0 -- -- 94
2019-12-10 02:00:00 0.9 5 Sudeste 12 Sudeste 0 -- -- 92
2019-12-10 01:00:00 1.9 4 Sudeste 16 Sudeste 0 -- -- 92
2019-12-10 00:00:00 1.5 3 Sudeste 11 Sudeste 0 -- -- 91
2019-12-09 23:00:00 2.1 7 Sudeste 11 Sudeste 0 -- -- 90
2019-12-09 22:00:00 3.2 0 Calma 6 Sudeste 0 -- -- 90
2019-12-09 21:00:00 4.2 3 Sudeste 5 Este 0 -- -- 85
2019-12-09 20:00:00 4.4 5 Sudeste 7 Sudeste 0 -- -- 84
2019-12-09 19:00:00 5.3 5 Este 9 Nordeste 0 -- -- 84
2019-12-09 18:00:00 6.8 5 Nordeste 8 Nordeste 0 -- -- 87
2019-12-09 17:00:00 8 6 Norte 8 Norte 0 -- -- 82
2019-12-09 16:00:00 9 6 Norte 10 Noroeste 0 -- -- 77
2019-12-09 15:00:00 9.6 5 Noroeste 10 Noroeste 0 -- -- 70
2019-12-09 14:00:00 9.2 4 Oeste 12 Sudoeste 0 -- -- 79
2019-12-09 13:00:00 7.5 4 Sudoeste 14 Sudoeste 0 -- -- 86
2019-12-09 12:00:00 6.2 12 Sudoeste 18 Sudoeste 0 -- -- 96
2019-12-09 11:00:00 5.8 15 Sudoeste 21 Sudoeste 0 -- -- 98
2019-12-09 10:00:00 5.5 15 Sudoeste 24 Sudoeste 0 -- -- 99
2019-12-09 09:00:00 5.5 14 Oeste 21 Oeste 0 -- -- 99
2019-12-09 08:00:00 5.7 8 Sudoeste 17 Sudoeste 0 -- -- 99
2019-12-09 07:00:00 6.3 8 Sudoeste 13 Sudoeste 0 -- -- 99
2019-12-09 06:00:00 6.2 10 Sudoeste 18 Sudoeste 0 -- -- 99
2019-12-09 05:00:00 6.4 11 Sudoeste 13 Sudoeste 0 -- -- 99
2019-12-09 04:00:00 6.5 5 Sudoeste 13 Sudoeste 0 -- -- 99
2019-12-09 03:00:00 7.5 10 Sudoeste 16 Sudoeste 0 -- -- 99
2019-12-09 02:00:00 7.9 6 Sudoeste 13 Oeste 0 -- -- 99
2019-12-09 01:00:00 8.1 9 Oeste 14 Noroeste 0 -- -- 99
2019-12-09 00:00:00 8.5 8 Oeste 15 Oeste 0 -- -- 99
2019-12-08 23:00:00 8.8 6 Oeste 14 Noroeste 0 -- -- 99
2019-12-08 22:00:00 9.2 12 Oeste 26 Noroeste 0 -- -- 99
2019-12-08 21:00:00 9.5 16 Oeste 27 Oeste 0 -- -- 99
2019-12-08 20:00:00 9.5 18 Oeste 27 Oeste 0.2 -- -- 99
2019-12-08 19:00:00 9.6 15 Oeste 21 Oeste 0 -- -- 98
2019-12-08 18:00:00 9.5 12 Oeste 17 Oeste 0.6 -- -- 98
2019-12-08 17:00:00 9.5 12 Sudoeste 17 Sudoeste 0 -- -- 97
2019-12-08 16:00:00 9.2 9 Sudoeste 13 Sudoeste 0.4 -- -- 96
2019-12-08 15:00:00 9 6 Sur 17 Oeste 0.2 -- -- 94
2019-12-08 14:00:00 8.9 12 Oeste 19 Oeste 0 -- -- 89
2019-12-08 13:00:00 9.6 9 Sudoeste 16 Sur 0 -- -- 77
2019-12-08 12:00:00 8.7 10 Sur 17 Sudoeste 0 -- -- 82
2019-12-08 11:00:00 7.8 15 Sudoeste 27 Sudoeste 0 -- -- 77
2019-12-08 10:00:00 7.5 10 Sur 17 Sur 0 -- -- 77
2019-12-08 09:00:00 4.3 7 Sudeste 13 Sur 0 -- -- 92
2019-12-08 08:00:00 4.6 10 Sur 15 Sur 0 -- -- 90
2019-12-08 07:00:00 5 11 Sur 16 Sur 0 -- -- 89
2019-12-08 06:00:00 2.6 10 Sudeste 18 Sur 0 -- -- 91
2019-12-08 05:00:00 6.2 12 Sur 16 Sudoeste 0 -- -- 85
2019-12-08 04:00:00 6 13 Sudoeste 19 Sudoeste 0 -- -- 86
2019-12-08 03:00:00 6.1 15 Sudoeste 21 Sur 0 -- -- 85
2019-12-08 02:00:00 3.7 10 Sudeste 15 Sudeste 0 -- -- 95
2019-12-08 01:00:00 3.4 8 Sudeste 15 Sudeste 0 -- -- 97
2019-12-08 00:00:00 3.5 5 Sudeste 9 Sudeste 0 -- -- 91
2019-12-07 23:00:00 4.6 3 Sudeste 18 Sudeste 0 -- -- 92
2019-12-07 22:00:00 4.9 12 Sudeste 17 Sudeste 0 -- -- 92
2019-12-07 21:00:00 4.4 6 Sudeste 9 Sudeste 0 -- -- 90
2019-12-07 20:00:00 6.5 0 Calma 6 Oeste 0 -- -- 84
2019-12-07 19:00:00 8.3 3 Oeste 6 Noroeste 0 -- -- 77
2019-12-07 18:00:00 9.7 3 Oeste 9 Oeste 0 -- -- 71
2019-12-07 17:00:00 11.6 7 Oeste 12 Oeste 0 -- -- 65
2019-12-07 16:00:00 11.9 6 Oeste 14 Oeste 0 -- -- 65
2019-12-07 15:00:00 11.6 5 Oeste 10 Oeste 0 -- -- 65
2019-12-07 14:00:00 11.3 3 Sudoeste 7 Sudoeste 0 -- -- 68
2019-12-07 13:00:00 9.5 2 Norte 9 Norte 0 -- -- 76
2019-12-07 12:00:00 9.3 5 Sudeste 13 Sudeste 0 -- -- 83
2019-12-07 11:00:00 6.4 10 Sudeste 18 Sudeste 0 -- -- 89
2019-12-07 10:00:00 3.3 13 Sudeste 19 Sudeste 0 -- -- 96
2019-12-07 09:00:00 0.5 12 Sudeste 14 Sudeste 0 -- -- 96
2019-12-07 08:00:00 0.8 0 Calma 4 Sudoeste 0 -- -- 95
2019-12-07 07:00:00 1.6 0 Calma 16 Sudeste 0 -- -- 95
2019-12-07 06:00:00 1.1 11 Sudeste 21 Sudeste 0 -- -- 95
2019-12-07 05:00:00 2.2 14 Sudeste 17 Sudeste 0 -- -- 94
2019-12-07 04:00:00 2 8 Sudeste 17 Sudeste 0 -- -- 94
2019-12-07 03:00:00 2.4 14 Sudeste 21 Sudeste 0 -- -- 95
2019-12-07 02:00:00 2 10 Sudeste 13 Sudeste 0 -- -- 95
2019-12-07 01:00:00 2.1 5 Sudeste 14 Sudeste 0 -- -- 93
2019-12-07 00:00:00 3.4 13 Sudeste 18 Sudeste 0 -- -- 94
2019-12-06 23:00:00 4 13 Sudeste 17 Sudeste 0 -- -- 93
2019-12-06 22:00:00 4.4 4 Sudeste 7 Nordeste 0 -- -- 88
2019-12-06 21:00:00 6.1 4 Nordeste 7 Nordeste 0 -- -- 86
2019-12-06 20:00:00 5.9 4 Este 5 Este 0 -- -- 84
2019-12-06 19:00:00 7.1 2 Este 4 Norte 0 -- -- 80
2019-12-06 18:00:00 8.9 4 Nordeste 8 Norte 0 -- -- 75
2019-12-06 17:00:00 10.7 6 Norte 13 Norte 0 -- -- 69
2019-12-06 16:00:00 11.2 4 Norte 9 Nordeste 0 -- -- 65
2019-12-06 15:00:00 11.3 5 Norte 10 Norte 0 -- -- 65
2019-12-06 14:00:00 10.2 2 Noroeste 7 Noroeste 0 -- -- 73
2019-12-06 13:00:00 8.9 3 Norte 10 Noroeste 0 -- -- 81
2019-12-06 12:00:00 7.9 5 Norte 10 Sudeste 0 -- -- 83
2019-12-06 11:00:00 6.4 9 Sudeste 17 Sudeste 0 -- -- 90
2019-12-06 10:00:00 2.7 12 Sudeste 16 Sudeste 0 -- -- 99
2019-12-06 09:00:00 0.8 12 Sudeste 14 Sudeste 0 -- -- 98
2019-12-06 08:00:00 0.5 8 Sudeste 16 Sudeste 0 -- -- 98
2019-12-06 07:00:00 0.8 13 Sudeste 16 Sudeste 0 -- -- 98
2019-12-06 06:00:00 0.7 12 Sudeste 14 Sudeste 0 -- -- 98
2019-12-06 05:00:00 0.6 9 Sudeste 11 Sudeste 0 -- -- 98
2019-12-06 04:00:00 1.2 3 Sudeste 5 Sudeste 0 -- -- 96
2019-12-06 03:00:00 1.1 0 Calma 8 Oeste 0 -- -- 96
2019-12-06 02:00:00 2.3 3 Noroeste 11 Oeste 0 -- -- 94
2019-12-06 01:00:00 3.9 5 Sudeste 21 Sudeste 0 -- -- 93
2019-12-06 00:00:00 3.6 15 Sudeste 19 Sudeste 0 -- -- 94
2019-12-05 23:00:00 3.6 8 Nordeste 11 Nordeste 0 -- -- 92
2019-12-05 22:00:00 4.1 4 Nordeste 9 Norte 0 -- -- 91
2019-12-05 21:00:00 5.5 3 Norte 9 Oeste 0 -- -- 88
2019-12-05 20:00:00 5.9 5 Nordeste 15 Nordeste 0 -- -- 87
2019-12-05 19:00:00 7.2 3 Norte 14 Nordeste 0 -- -- 81
2019-12-05 18:00:00 8.3 8 Norte 26 Nordeste 0 -- -- 77
2019-12-05 17:00:00 10.2 17 Nordeste 28 Este 0 -- -- 71
2019-12-05 16:00:00 10.9 15 Nordeste 27 Este 0 -- -- 69
2019-12-05 15:00:00 10 13 Nordeste 28 Nordeste 0 -- -- 71
2019-12-05 14:00:00 9.7 14 Nordeste 21 Nordeste 0 -- -- 72
2019-12-05 13:00:00 8.2 16 Nordeste 22 Nordeste 0 -- -- 79
2019-12-05 12:00:00 6.5 7 Nordeste 14 Nordeste 0 -- -- 84
2019-12-05 11:00:00 5.6 3 Nordeste 5 Sudoeste 0 -- -- 92
2019-12-05 10:00:00 2.3 2 Norte 9 Sudeste 0 -- -- 96
2019-12-05 09:00:00 1.9 3 Este 9 Sudeste 0 -- -- 96
2019-12-05 08:00:00 1.8 8 Sudeste 10 Sudeste 0 -- -- 95
2019-12-05 07:00:00 2.4 0 Calma 3 Oeste 0 -- -- 95
2019-12-05 06:00:00 2.4 0 Calma 3 Oeste 0 -- -- 95
2019-12-05 05:00:00 2.5 0 Calma 4 Nordeste 0 -- -- 94
2019-12-05 04:00:00 2.7 0 Calma 6 Sudoeste 0 -- -- 93
2019-12-05 03:00:00 2.7 5 Oeste 8 Sudoeste 0 -- -- 92
2019-12-05 02:00:00 2.3 0 Calma 3 Noroeste 0 -- -- 93
2019-12-05 01:00:00 1.3 0 Calma 10 Oeste 0 -- -- 95
2019-12-05 00:00:00 2.5 3 Noroeste 7 Norte 0 -- -- 94
2019-12-04 23:00:00 2.9 0 Calma 8 Sudoeste 0 -- -- 94
2019-12-04 22:00:00 3.4 2 Sudeste 12 Sudoeste 0 -- -- 93
2019-12-04 21:00:00 4 12 Sudoeste 19 Sudoeste 0 -- -- 93
2019-12-04 20:00:00 3.9 15 Sudoeste 25 Sudoeste 0 -- -- 93
2019-12-04 19:00:00 4.8 12 Sudoeste 18 Sudoeste 0 -- -- 91
2019-12-04 18:00:00 5.6 6 Sudoeste 11 Sudoeste 0 -- -- 89
2019-12-04 17:00:00 5.8 6 Sudoeste 13 Oeste 0 -- -- 88
2019-12-04 16:00:00 5.3 7 Oeste 13 Oeste 0 -- -- 87
2019-12-04 15:00:00 4.4 8 Oeste 11 Oeste 0 -- -- 88
2019-12-04 14:00:00 3.7 6 Oeste 9 Noroeste 0 -- -- 89
2019-12-04 13:00:00 2.9 3 Noroeste 18 Oeste 0 -- -- 93
2019-12-04 12:00:00 1.5 12 Oeste 18 Oeste 0 -- -- 97
2019-12-04 11:00:00 1.4 5 Noroeste 9 Norte 0 -- -- 96
2019-12-04 10:00:00 0.4 3 Sudeste 12 Sudoeste 0 -- -- 98
2019-12-04 09:00:00 -0.9 3 Sudoeste 4 Oeste 0 -- -- 97
2019-12-04 08:00:00 -0.4 3 Noroeste 7 Norte 0 -- -- 97
2019-12-04 07:00:00 -0.5 3 Sudoeste 9 Sudoeste 0 -- -- 96
2019-12-04 06:00:00 -0.1 4 Oeste 8 Oeste 0 -- -- 95
2019-12-04 05:00:00 1.3 3 Oeste 13 Este 0 -- -- 92
2019-12-04 04:00:00 1.9 4 Este 9 Sudeste 0 -- -- 93
2019-12-04 03:00:00 1.1 5 Este 13 Norte 0 -- -- 94
2019-12-04 02:00:00 0.9 0 Calma 17 Este 0 -- -- 92
2019-12-04 01:00:00 1.1 10 Este 19 Este 0 -- -- 92
2019-12-04 00:00:00 1 16 Este 24 Este 0 -- -- 93
2019-12-03 23:00:00 1.4 5 Este 17 Sudeste 0 -- -- 92
2019-12-03 22:00:00 1 3 Sudeste 11 Sudeste 0 -- -- 91
2019-12-03 21:00:00 1.4 6 Este 18 Este 0 -- -- 90
2019-12-03 20:00:00 2.6 12 Este 17 Este 0 -- -- 86
2019-12-03 19:00:00 3.8 5 Nordeste 7 Nordeste 0 -- -- 83
2019-12-03 18:00:00 4.9 4 Nordeste 10 Nordeste 0 -- -- 77
2019-12-03 17:00:00 5.8 5 Nordeste 12 Nordeste 0 -- -- 70
2019-12-03 16:00:00 5.9 6 Norte 13 Norte 0 -- -- 70
2019-12-03 15:00:00 5.3 7 Nordeste 15 Nordeste 0 -- -- 72
2019-12-03 14:00:00 4.6 9 Nordeste 21 Nordeste 0 -- -- 77
2019-12-03 13:00:00 3.6 6 Norte 10 Norte 0 -- -- 80
2019-12-03 12:00:00 2.4 3 Oeste 6 Oeste 0 -- -- 90
2019-12-03 11:00:00 0.9 3 Noroeste 4 Oeste 0 -- -- 95
2019-12-03 10:00:00 -0.5 3 Noroeste 3 Norte 0 -- -- 95
2019-12-03 09:00:00 -1 0 Calma 2 Sudeste 0 -- -- 95
2019-12-03 08:00:00 -1.3 0 Calma 5 Sudeste 0 -- -- 95
2019-12-03 07:00:00 -1 4 Sudeste 8 Sudeste 0 -- -- 95
2019-12-03 06:00:00 -1.4 0 Calma 5 Norte 0 -- -- 94
2019-12-03 05:00:00 -1.2 0 Calma 4 Norte 0 -- -- 93
2019-12-03 04:00:00 -0.9 0 Calma 4 Oeste 0 -- -- 93
2019-12-03 03:00:00 -0.6 2 Oeste 4 Sudoeste 0 -- -- 90
2019-12-03 02:00:00 -0.6 0 Calma 10 Norte 0 -- -- 91
2019-12-03 01:00:00 -0.2 7 Norte 10 Norte 0 -- -- 89
2019-12-03 00:00:00 0.4 6 Nordeste 14 Norte 0 -- -- 87
2019-12-02 23:00:00 1.2 13 Norte 23 Norte 0 -- -- 85
2019-12-02 22:00:00 2 16 Norte 29 Norte 0 -- -- 85
2019-12-02 21:00:00 2.8 21 Norte 35 Nordeste 0 -- -- 82
2019-12-02 20:00:00 3.5 21 Norte 35 Norte 0 -- -- 86
2019-12-02 19:00:00 4.7 19 Norte 35 Norte 0 -- -- 82
2019-12-02 18:00:00 6 21 Norte 35 Norte 0 -- -- 82
2019-12-02 17:00:00 7.5 23 Norte 37 Norte 0 -- -- 77
2019-12-02 16:00:00 8.7 22 Norte 32 Nordeste 0 -- -- 74
2019-12-02 15:00:00 8.7 19 Nordeste 36 Nordeste 0.2 -- -- 69
2019-12-02 14:00:00 9.3 21 Nordeste 36 Nordeste 0 -- -- 68
2019-12-02 13:00:00 7.9 17 Norte 31 Norte 0 -- -- 73
2019-12-02 12:00:00 6.9 18 Norte 28 Norte 0 -- -- 78
2019-12-02 11:00:00 5.2 15 Norte 28 Nordeste 0 -- -- 89
2019-12-02 10:00:00 3.6 14 Nordeste 21 Nordeste 0 -- -- 98
2019-12-02 09:00:00 1.8 8 Nordeste 14 Norte 0 -- -- 98
2019-12-02 08:00:00 1.7 9 Nordeste 15 Nordeste 0 -- -- 98
2019-12-02 07:00:00 2.3 11 Nordeste 19 Norte 0 -- -- 97
2019-12-02 06:00:00 2.4 8 Norte 17 Nordeste 0 -- -- 97
2019-12-02 05:00:00 2.7 9 Norte 19 Norte 0 -- -- 97
2019-12-02 04:00:00 3 13 Norte 20 Norte 0 -- -- 97
2019-12-02 03:00:00 3.2 13 Nordeste 19 Nordeste 0 -- -- 96
2019-12-02 02:00:00 3.9 12 Norte 23 Nordeste 0 -- -- 96
2019-12-02 01:00:00 4.7 18 Nordeste 27 Nordeste 0 -- -- 96
2019-12-02 00:00:00 5.3 14 Nordeste 21 Nordeste 0.2 -- -- 97
2019-12-01 23:00:00 5.7 16 Nordeste 22 Nordeste 0.2 -- -- 97
2019-12-01 22:00:00 5.5 11 Norte 15 Norte 0.6 -- -- 97
2019-12-01 21:00:00 5.5 9 Nordeste 14 Norte 0.2 -- -- 96
2019-12-01 20:00:00 5.8 9 Norte 15 Norte 0.2 -- -- 96
2019-12-01 19:00:00 6.1 8 Nordeste 13 Nordeste 0 -- -- 94
2019-12-01 18:00:00 6.2 10 Norte 17 Nordeste 0 -- -- 93
2019-12-01 17:00:00 6.6 13 Nordeste 19 Nordeste 0 -- -- 92
2019-12-01 16:00:00 7 14 Nordeste 18 Nordeste 0 -- -- 89
2019-12-01 15:00:00 7.3 12 Nordeste 15 Nordeste 0 -- -- 89
2019-12-01 14:00:00 7.2 6 Este 10 Este 0.2 -- -- 88
2019-12-01 13:00:00 6.5 6 Sur 15 Sur 0 -- -- 88
2019-12-01 12:00:00 6.2 8 Sur 16 Sur 0.6 -- -- 90
2019-12-01 11:00:00 6 10 Sur 17 Sur 0.4 -- -- 88
2019-12-01 10:00:00 5.5 7 Sur 15 Sudeste 0.2 -- -- 87
2019-12-01 09:00:00 4.8 13 Sudeste 26 Sudeste 0.4 -- -- 91
2019-12-01 08:00:00 4.7 18 Sudeste 24 Sudeste 0.4 -- -- 87
2019-12-01 07:00:00 4.3 20 Sudeste 25 Sudeste 0.2 -- -- 89
2019-12-01 06:00:00 5.1 14 Sudeste 24 Sudeste 0 -- -- 84
2019-12-01 05:00:00 4.8 19 Sudeste 22 Sudeste 0 -- -- 84
2019-12-01 04:00:00 4 13 Sudeste 21 Sudeste 0 -- -- 87
2019-12-01 03:00:00 4.7 16 Sur 24 Sudoeste 0 -- -- 82
2019-12-01 02:00:00 5.1 13 Sur 21 Sur 0 -- -- 87
2019-12-01 01:00:00 5 14 Sur 20 Sur 0 -- -- 89
2019-12-01 00:00:00 5.4 16 Sur 21 Sur 0 -- -- 90
2019-11-30 23:00:00 5.5 15 Sur 26 Sur 0 -- -- 89
2019-11-30 22:00:00 5.8 15 Sur 22 Sur 0 -- -- 89
2019-11-30 21:00:00 6.6 12 Sur 43 Oeste 0 -- -- 88
2019-11-30 20:00:00 6.6 20 Sudoeste 32 Sudoeste 0.4 -- -- 87
2019-11-30 19:00:00 6.2 19 Oeste 41 Oeste 1.2 -- -- 95
2019-11-30 18:00:00 6.7 18 Oeste 37 Oeste 2.2 -- -- 98
2019-11-30 17:00:00 8.1 23 Noroeste 36 Oeste 2.8 -- -- 97
2019-11-30 16:00:00 8.9 26 Oeste 58 Oeste 1.6 -- -- 95
2019-11-30 15:00:00 14.5 29 Sudoeste 52 Sudoeste 0 -- -- 71
2019-11-30 14:00:00 14.4 24 Sudoeste 43 Sudoeste 0 -- -- 70
2019-11-30 13:00:00 14.4 19 Sudoeste 45 Sudoeste 0 -- -- 74
2019-11-30 12:00:00 14.8 27 Sudoeste 37 Sur 0 -- -- 70
2019-11-30 11:00:00 13.5 26 Sur 36 Sur 0 -- -- 76
2019-11-30 10:00:00 11.9 23 Sur 36 Sur 0 -- -- 81
2019-11-30 09:00:00 11.1 19 Sur 31 Sudoeste 0 -- -- 81
2019-11-30 08:00:00 9.8 20 Sur 28 Sur 0 -- -- 89
2019-11-30 07:00:00 9.2 18 Sur 25 Sudeste 0 -- -- 92
2019-11-30 06:00:00 10.8 15 Sur 32 Sudoeste 0 -- -- 93
2019-11-30 05:00:00 11 16 Sur 33 Sur 0 -- -- 89
2019-11-30 04:00:00 11.1 15 Sur 21 Sur 0 -- -- 88
2019-11-30 03:00:00 10.7 12 Sur 18 Sur 0 -- -- 92
2019-11-30 02:00:00 11.4 12 Sur 18 Sur 0 -- -- 92
2019-11-30 01:00:00 10.9 10 Sur 14 Sur 0.2 -- -- 96
2019-11-30 00:00:00 10.8 8 Sur 12 Sur 4.2 -- -- 97
2019-11-29 23:00:00 10.8 10 Sur 14 Sur 2.2 -- -- 95
2019-11-29 22:00:00 10.6 8 Sudeste 14 Sudeste 0 -- -- 94
2019-11-29 21:00:00 10.3 5 Sudeste 12 Sudeste 0 -- -- 95
2019-11-29 20:00:00 10.7 5 Sur 7 Sur 0 -- -- 93
2019-11-29 19:00:00 11.5 4 Sur 9 Sudoeste 0 -- -- 91
2019-11-29 18:00:00 11.8 6 Sudoeste 19 Oeste 0 -- -- 89
2019-11-29 17:00:00 12.9 15 Oeste 27 Sudoeste 0 -- -- 87
2019-11-29 16:00:00 13.2 20 Oeste 29 Oeste 0 -- -- 87
2019-11-29 15:00:00 13.3 21 Oeste 30 Oeste 0 -- -- 88
2019-11-29 14:00:00 12.7 19 Oeste 26 Sudoeste 0 -- -- 93
2019-11-29 13:00:00 12.3 14 Sudoeste 27 Oeste 0.2 -- -- 97
2019-11-29 12:00:00 11.7 15 Sudoeste 24 Oeste 0.2 -- -- 98
2019-11-29 11:00:00 11.6 15 Oeste 25 Oeste 0 -- -- 97
2019-11-29 10:00:00 11 10 Sudoeste 15 Oeste 0.2 -- -- 98
2019-11-29 09:00:00 10.8 8 Sudoeste 21 Sudoeste 0.2 -- -- 97
2019-11-29 08:00:00 10.9 15 Sudoeste 23 Sudoeste 0 -- -- 95
2019-11-29 07:00:00 10.9 18 Sudoeste 26 Sudoeste 0 -- -- 95
2019-11-29 06:00:00 10.8 17 Sudoeste 30 Sudoeste 0 -- -- 96
2019-11-29 05:00:00 10.9 24 Sudoeste 39 Sudoeste 0 -- -- 94
2019-11-29 04:00:00 11.1 24 Sudoeste 37 Sudoeste 0 -- -- 91
2019-11-29 03:00:00 11 22 Sudoeste 47 Sudoeste 0 -- -- 90
2019-11-29 02:00:00 11.2 25 Sudoeste 42 Sudoeste 0 -- -- 89
2019-11-29 01:00:00 11.5 27 Sudoeste 43 Sudoeste 0 -- -- 85
2019-11-29 00:00:00 11.3 25 Sudoeste 37 Oeste 0 -- -- 84
2019-11-28 23:00:00 11.5 26 Sudoeste 38 Sudoeste 0 -- -- 78
2019-11-28 22:00:00 11.3 23 Sudoeste 36 Sudoeste 0 -- -- 77
2019-11-28 21:00:00 10.9 17 Sudoeste 32 Sudoeste 0 -- -- 79
2019-11-28 20:00:00 10.6 15 Sudoeste 39 Sudoeste 0 -- -- 77
2019-11-28 19:00:00 11 30 Sudoeste 44 Sudoeste 0 -- -- 76
2019-11-28 18:00:00 11.4 31 Sudoeste 49 Sudoeste 0 -- -- 80
2019-11-28 17:00:00 11.5 28 Sudoeste 39 Sudoeste 0 -- -- 79
2019-11-28 16:00:00 11.8 22 Sudoeste 45 Sudoeste 0 -- -- 70
2019-11-28 15:00:00 11.8 26 Sudoeste 46 Sudoeste 0 -- -- 72
2019-11-28 14:00:00 12.4 24 Sudoeste 45 Sudoeste 0 -- -- 70
2019-11-28 13:00:00 12.4 31 Sudoeste 44 Sudoeste 0 -- -- 71
2019-11-28 12:00:00 11.7 23 Sudoeste 32 Sudoeste 0 -- -- 74
2019-11-28 11:00:00 11.2 18 Sudoeste 27 Sur 0 -- -- 75
2019-11-28 10:00:00 9.7 19 Sur 34 Sudoeste 0 -- -- 81
2019-11-28 09:00:00 8.8 17 Sur 33 Sur 0 -- -- 84
2019-11-28 08:00:00 8.4 26 Sudoeste 37 Sudoeste 0 -- -- 85
2019-11-28 07:00:00 8.3 19 Sur 27 Sur 0 -- -- 85
2019-11-28 06:00:00 7.8 15 Sur 27 Sur 0 -- -- 87
2019-11-28 05:00:00 8.7 17 Sudoeste 31 Sudoeste 0 -- -- 85
2019-11-28 04:00:00 9 17 Sudoeste 33 Sudoeste 0 -- -- 84
2019-11-28 03:00:00 8.6 16 Sudoeste 22 Sudoeste 0 -- -- 82
2019-11-28 02:00:00 8.6 14 Sudoeste 29 Sudoeste 0 -- -- 84
2019-11-28 01:00:00 8.8 21 Sudoeste 31 Sudoeste 0 -- -- 85
2019-11-28 00:00:00 8.6 19 Sudoeste 29 Sudoeste 0 -- -- 85
2019-11-27 23:00:00 8.4 17 Sudoeste 35 Sudoeste 0 -- -- 85
2019-11-27 22:00:00 8.8 24 Sudoeste 39 Sudoeste 0 -- -- 85
2019-11-27 21:00:00 9.1 24 Sudoeste 39 Sudoeste 0 -- -- 83
2019-11-27 20:00:00 9.5 24 Sudoeste 36 Sudoeste 0 -- -- 78
2019-11-27 19:00:00 9.8 21 Sudoeste 38 Oeste 0 -- -- 75
2019-11-27 18:00:00 10 28 Sudoeste 42 Sudoeste 0 -- -- 73
2019-11-27 17:00:00 10.2 31 Sudoeste 48 Sudoeste 0 -- -- 73
2019-11-27 16:00:00 10.7 34 Sudoeste 48 Sudoeste 0 -- -- 70
2019-11-27 15:00:00 11.2 31 Sudoeste 49 Sudoeste 0 -- -- 70
2019-11-27 14:00:00 11.4 29 Sudoeste 44 Oeste 0 -- -- 69
2019-11-27 06:00:00 -- -- -- -- -- -- -- -- --
2019-11-27 05:00:00 -- -- -- -- -- -- -- -- --
2019-11-27 04:00:00 -- -- -- -- -- -- -- -- --
2019-11-27 03:00:00 -- -- -- -- -- -- -- -- --
2019-11-27 02:00:00 9.3 33 Oeste 49 Oeste 0 -- -- 88
2019-11-27 01:00:00 9.6 34 Sudoeste 50 Oeste 0 -- -- 87
2019-11-27 00:00:00 10.3 42 Oeste 63 Sudoeste 0.2 -- -- 87
2019-11-26 23:00:00 11 31 Sudoeste 49 Sudoeste 0 -- -- 84
2019-11-26 22:00:00 11.9 26 Sudoeste 46 Sudoeste 0 -- -- 72
2019-11-26 21:00:00 12.4 30 Sudoeste 58 Sudoeste 0 -- -- 75
2019-11-26 20:00:00 12.8 31 Sudoeste 44 Sudoeste 0 -- -- 82
2019-11-26 19:00:00 12.4 30 Sur 49 Sur 0 -- -- 84
2019-11-26 18:00:00 12.8 32 Sur 54 Sur 0 -- -- 80
2019-11-26 17:00:00 13.7 31 Sur 55 Sur 0 -- -- 77
2019-11-26 16:00:00 13.7 33 Sur 49 Sur 0.4 -- -- 80
2019-11-26 15:00:00 16 30 Sur 42 Sur 0 -- -- 67
2019-11-26 14:00:00 14.2 24 Sur 34 Sur 0 -- -- 78
2019-11-26 13:00:00 15.7 19 Sudoeste 27 Sudoeste 0 -- -- 68
2019-11-26 12:00:00 14.4 17 Sur 23 Sur 0 -- -- 76
2019-11-26 11:00:00 11.7 14 Sur 20 Sur 0.6 -- -- 88
2019-11-26 10:00:00 12.4 8 Sudoeste 22 Sur 0 -- -- 79
2019-11-26 09:00:00 10.8 16 Sudeste 21 Sudeste 0 -- -- 85
2019-11-26 08:00:00 10.5 11 Sur 23 Sur 0 -- -- 84
2019-11-26 07:00:00 10.6 14 Sur 20 Sudeste 0 -- -- 81
2019-11-26 06:00:00 9.2 19 Sudeste 26 Sudeste 0 -- -- 86
2019-11-26 05:00:00 8.1 15 Sudeste 23 Sudeste 0 -- -- 93
2019-11-26 04:00:00 8.3 10 Sudeste 15 Sudeste 0 -- -- 91
2019-11-26 03:00:00 9.5 11 Sur 19 Sur 0 -- -- 89
2019-11-26 02:00:00 8.6 14 Sur 19 Sur 0 -- -- 90
2019-11-26 01:00:00 8.5 14 Sur 17 Sur 0 -- -- 91
2019-11-26 00:00:00 9.8 13 Sur 23 Sudoeste 0 -- -- 86
2019-11-25 23:00:00 9.3 12 Sur 21 Sur 0 -- -- 90
2019-11-25 22:00:00 9.6 11 Sur 18 Sur 0 -- -- 89
2019-11-25 21:00:00 9.7 12 Sudoeste 19 Sudoeste 0 -- -- 87
2019-11-25 20:00:00 10.1 14 Sudoeste 24 Sudoeste 0 -- -- 87
2019-11-25 19:00:00 10.5 11 Oeste 31 Oeste 0 -- -- 86
2019-11-25 18:00:00 11.3 18 Oeste 26 Oeste 0 -- -- 83
2019-11-25 17:00:00 12.1 10 Sudoeste 28 Oeste 0 -- -- 78
2019-11-25 16:00:00 12.2 23 Oeste 35 Oeste 0 -- -- 78
2019-11-25 15:00:00 12.6 26 Oeste 46 Oeste 0 -- -- 76
2019-11-25 14:00:00 12.9 27 Oeste 54 Oeste 0.2 -- -- 74
2019-11-25 13:00:00 13.2 36 Oeste 46 Oeste 0 -- -- 75
2019-11-25 12:00:00 12.3 23 Oeste 41 Sudoeste 0 -- -- 79
2019-11-25 11:00:00 11.7 27 Sudoeste 39 Sudoeste 0 -- -- 81
2019-11-25 10:00:00 10.6 25 Sudoeste 36 Sudoeste 0 -- -- 86
2019-11-25 09:00:00 9.6 22 Sudoeste 33 Sudoeste 0 -- -- 89
2019-11-25 08:00:00 9.3 9 Sudoeste 25 Sudoeste 0 -- -- 93
2019-11-25 07:00:00 9.1 12 Sudoeste 27 Sudoeste 0 -- -- 94
2019-11-25 06:00:00 9.4 22 Sudoeste 33 Sudoeste 0 -- -- 96
2019-11-25 05:00:00 9.7 22 Sudoeste 43 Sudoeste 0 -- -- 94
2019-11-25 04:00:00 10 26 Sudoeste 45 Sudoeste 0 -- -- 93
2019-11-25 03:00:00 10.7 30 Sudoeste 48 Sudoeste 0 -- -- 91
2019-11-25 02:00:00 10.9 29 Sudoeste 48 Sudoeste 0.2 -- -- 88
2019-11-25 01:00:00 10.3 21 Sudoeste 36 Sur 0 -- -- 87
2019-11-25 00:00:00 10.3 22 Sur 33 Sur 0 -- -- 80
2019-11-24 23:00:00 9 14 Sur 27 Sudoeste 0 -- -- 81
2019-11-24 22:00:00 7.9 17 Sur 29 Sudoeste 0 -- -- 87
2019-11-24 21:00:00 8.3 21 Sur 28 Sur 0 -- -- 84
2019-11-24 20:00:00 8.1 15 Sur 21 Sur 0 -- -- 79
2019-11-24 19:00:00 7.8 8 Sur 19 Sudoeste 0 -- -- 81
2019-11-24 18:00:00 7.9 9 Sudoeste 25 Oeste 0 -- -- 81
2019-11-24 17:00:00 8.2 13 Sudoeste 23 Sudoeste 0 -- -- 77
2019-11-24 16:00:00 8.2 20 Oeste 30 Oeste 0 -- -- 74
2019-11-24 15:00:00 8.6 19 Oeste 33 Oeste 0 -- -- 73
2019-11-24 14:00:00 8 19 Sudoeste 28 Sudoeste 0 -- -- 70
2019-11-24 13:00:00 7.4 21 Sudoeste 30 Sudoeste 0 -- -- 74
2019-11-24 12:00:00 6.7 14 Sudoeste 26 Sudoeste 0 -- -- 82
2019-11-24 11:00:00 5.7 14 Sudoeste 23 Sudoeste 0 -- -- 87
2019-11-24 10:00:00 4 15 Sudoeste 22 Sudoeste 0 -- -- 96
2019-11-24 09:00:00 2.9 14 Sudoeste 26 Oeste 0 -- -- 97
2019-11-24 08:00:00 2.7 15 Sudoeste 24 Sudoeste 0 -- -- 97
2019-11-24 07:00:00 2.7 18 Sudoeste 29 Sudoeste 0 -- -- 96
2019-11-24 06:00:00 2.7 10 Oeste 26 Sudoeste 0 -- -- 96
2019-11-24 05:00:00 3.1 17 Sudoeste 25 Sudoeste 0 -- -- 96
2019-11-24 04:00:00 3.4 18 Oeste 27 Sudoeste 0 -- -- 96
2019-11-24 03:00:00 3.5 16 Oeste 29 Oeste 0 -- -- 95
2019-11-24 02:00:00 3.3 22 Oeste 28 Oeste 0 -- -- 94
2019-11-24 01:00:00 3.6 18 Oeste 29 Oeste 0 -- -- 93
2019-11-24 00:00:00 3.9 22 Oeste 29 Sudoeste 0 -- -- 91
2019-11-23 23:00:00 4.4 19 Sudoeste 29 Oeste 0 -- -- 89
2019-11-23 22:00:00 5 24 Oeste 33 Oeste 0 -- -- 84
2019-11-23 21:00:00 5.7 25 Oeste 34 Sudoeste 0 -- -- 78
2019-11-23 20:00:00 6.3 25 Oeste 38 Oeste 0 -- -- 79
2019-11-23 19:00:00 7 23 Oeste 37 Oeste 0 -- -- 78
2019-11-23 18:00:00 7.4 24 Oeste 41 Oeste 0 -- -- 74
2019-11-23 17:00:00 8.7 31 Oeste 44 Oeste 0 -- -- 69
2019-11-23 16:00:00 8.4 35 Oeste 50 Oeste 0 -- -- 70
2019-11-23 15:00:00 8.9 37 Oeste 50 Oeste 0 -- -- 67
2019-11-23 14:00:00 8 35 Oeste 53 Oeste 0 -- -- 71
2019-11-23 13:00:00 7.7 42 Oeste 57 Oeste 0 -- -- 78
2019-11-23 12:00:00 6.9 45 Oeste 57 Oeste 0 -- -- 81
2019-11-23 11:00:00 5.7 39 Oeste 58 Oeste 0 -- -- 85
2019-11-23 10:00:00 4.5 37 Oeste 52 Oeste 0 -- -- 87
2019-11-23 09:00:00 3.2 39 Oeste 54 Oeste 0 -- -- 91
2019-11-23 08:00:00 3.5 35 Oeste 53 Oeste 0 -- -- 88
2019-11-23 07:00:00 3.7 34 Oeste 59 Oeste 0 -- -- 88
2019-11-23 06:00:00 4.5 42 Oeste 60 Oeste 0 -- -- 88
2019-11-23 05:00:00 4.8 43 Oeste 65 Sudoeste 0.2 -- -- 91
2019-11-23 04:00:00 4.7 49 Oeste 71 Oeste 0.8 -- -- 91
2019-11-23 03:00:00 5.2 35 Sudoeste 55 Sudoeste 0 -- -- 89
2019-11-23 02:00:00 5.3 39 Sudoeste 55 Sudoeste 0 -- -- 90
2019-11-23 01:00:00 5.1 31 Oeste 63 Oeste 1.8 -- -- 91
2019-11-23 00:00:00 6.9 31 Sudoeste 64 Sudoeste 0.4 -- -- 90
2019-11-22 23:00:00 7.8 33 Sudoeste 61 Sudoeste 0 -- -- 84
2019-11-22 22:00:00 8.3 26 Sudoeste 48 Sudoeste 0 -- -- 79
2019-11-22 21:00:00 8.4 33 Sudoeste 54 Sudoeste 0 -- -- 77
2019-11-22 20:00:00 8.1 28 Sudoeste 55 Oeste 0 -- -- 79
2019-11-22 19:00:00 8.4 30 Oeste 56 Oeste 0 -- -- 82
2019-11-22 18:00:00 9 31 Oeste 63 Oeste 0.2 -- -- 85
2019-11-22 17:00:00 13 28 Sudoeste 54 Sudoeste 0 -- -- 73
2019-11-22 16:00:00 13.6 34 Sudoeste 59 Oeste 0 -- -- 70
2019-11-22 15:00:00 12.1 37 Sur 56 Sudeste 0 -- -- 78
2019-11-22 14:00:00 10.1 41 Sur 60 Sur 0.2 -- -- 85
2019-11-22 13:00:00 8.8 41 Sur 67 Sur 1.4 -- -- 90
2019-11-22 12:00:00 10.4 48 Sur 75 Sur 0 -- -- 80
2019-11-22 11:00:00 9.4 51 Sur 72 Sur 0 -- -- 84
2019-11-22 10:00:00 8.5 43 Sudeste 63 Sur 0.2 -- -- 84
2019-11-22 09:00:00 7.4 36 Sur 50 Sudeste 0.4 -- -- 87
2019-11-22 08:00:00 7.1 28 Sur 39 Sur 0.6 -- -- 89
2019-11-22 07:00:00 7.3 30 Sudeste 42 Sudeste 0 -- -- 86
2019-11-22 06:00:00 7.1 32 Sudeste 42 Sudeste 0 -- -- 87
2019-11-22 05:00:00 6.6 26 Sudeste 33 Sudeste 0.2 -- -- 90
2019-11-22 04:00:00 6.7 24 Sur 32 Sur 0 -- -- 89
2019-11-22 03:00:00 6.7 20 Sur 30 Sudeste 0 -- -- 86
2019-11-22 02:00:00 6.3 16 Sur 27 Sur 0 -- -- 81
2019-11-22 01:00:00 6 17 Sur 26 Sudeste 0 -- -- 83
2019-11-22 00:00:00 5.5 20 Sur 25 Sudeste 0 -- -- 85
2019-11-21 23:00:00 5.4 19 Sudeste 23 Sur 0 -- -- 89
2019-11-21 22:00:00 5.9 16 Sudeste 22 Sudeste 0 -- -- 89
2019-11-21 21:00:00 5.7 13 Sur 16 Sur 0 -- -- 87
2019-11-21 20:00:00 5.1 12 Sur 14 Sur 0 -- -- 88
2019-11-21 19:00:00 6.3 10 Sudoeste 15 Sudoeste 0 -- -- 87
2019-11-21 18:00:00 6.8 8 Sudoeste 14 Sudoeste 0 -- -- 88
2019-11-21 17:00:00 7.2 10 Sudoeste 33 Sudoeste 0 -- -- 87
2019-11-21 16:00:00 7.9 13 Sudoeste 26 Sudoeste 0 -- -- 82
2019-11-21 15:00:00 7.4 12 Sudoeste 31 Oeste 0.4 -- -- 89
2019-11-21 14:00:00 7.7 21 Oeste 33 Oeste 0 -- -- 83
2019-11-21 13:00:00 8.3 21 Oeste 28 Oeste 0 -- -- 83
2019-11-21 12:00:00 7.2 12 Sudoeste 24 Sudoeste 0.2 -- -- 88
2019-11-21 11:00:00 7.1 14 Sudoeste 22 Sudoeste 0 -- -- 85
2019-11-21 10:00:00 6.2 13 Sur 26 Sudoeste 0 -- -- 85
2019-11-21 09:00:00 4.9 13 Sur 17 Sur 0 -- -- 91
2019-11-21 08:00:00 4.5 9 Sur 24 Sur 0.2 -- -- 89
2019-11-21 07:00:00 4.9 13 Sur 19 Sur 0 -- -- 84
2019-11-21 06:00:00 4.9 10 Sur 20 Sur 0 -- -- 83
2019-11-21 05:00:00 4.9 14 Sur 20 Sur 0 -- -- 82
2019-11-21 04:00:00 4 14 Sur 25 Sur 0.2 -- -- 87
2019-11-21 03:00:00 4.3 18 Sur 28 Sur 0 -- -- 85
2019-11-21 02:00:00 3.1 15 Sur 19 Sur 0 -- -- 89
2019-11-21 01:00:00 3.7 13 Sur 19 Sur 0 -- -- 89
2019-11-21 00:00:00 4.7 14 Sur 23 Sur 0 -- -- 87
2019-11-20 23:00:00 5 11 Sur 15 Sur 0 -- -- 89
2019-11-20 22:00:00 5.1 11 Sur 15 Sudeste 0 -- -- 90
2019-11-20 21:00:00 5 5 Sur 16 Sur 0 -- -- 91
2019-11-20 20:00:00 5.2 12 Sur 23 Sur 0.2 -- -- 89
2019-11-20 19:00:00 5.3 14 Sur 24 Sur 0 -- -- 90
2019-11-20 18:00:00 5.3 17 Sur 24 Sur 0.2 -- -- 90
2019-11-20 17:00:00 5.3 18 Sur 30 Sur 1 -- -- 89
2019-11-20 16:00:00 6 16 Sur 26 Sur 0.6 -- -- 87
2019-11-20 15:00:00 6.6 15 Sur 31 Sur 0 -- -- 83
2019-11-20 14:00:00 6.2 17 Sur 33 Sur 0.6 -- -- 84
2019-11-20 13:00:00 7.2 14 Sudoeste 21 Sudoeste 0 -- -- 76
2019-11-20 12:00:00 5.9 6 Sur 10 Sur 0 -- -- 87
2019-11-20 11:00:00 5.4 6 Oeste 12 Oeste 0 -- -- 90
2019-11-20 10:00:00 4.8 8 Oeste 24 Sur 0.2 -- -- 91
2019-11-20 09:00:00 5 18 Sudeste 22 Sudeste 0 -- -- 77
2019-11-20 08:00:00 4.1 14 Sudeste 20 Sudeste 0 -- -- 80
2019-11-20 07:00:00 4.1 3 Este 9 Sudeste 0 -- -- 77
2019-11-20 06:00:00 2.5 9 Sudeste 13 Sudeste 0 -- -- 86
2019-11-20 05:00:00 3 10 Sudeste 12 Sudeste 0 -- -- 84
2019-11-20 04:00:00 3.2 8 Sudeste 12 Sudeste 0 -- -- 85
2019-11-20 03:00:00 4.3 8 Sudeste 12 Sudeste 0 -- -- 83
2019-11-20 02:00:00 4.1 10 Sudeste 15 Sudeste 0 -- -- 88
2019-11-20 01:00:00 4.2 12 Sudeste 14 Sudeste 0 -- -- 87
2019-11-20 00:00:00 5.2 10 Sur 15 Sur 0 -- -- 75
2019-11-19 23:00:00 4.6 13 Sur 20 Sur 0 -- -- 77
2019-11-19 22:00:00 4.1 7 Sudeste 11 Sudeste 0 -- -- 83
2019-11-19 21:00:00 4.4 4 Sudeste 6 Sur 0 -- -- 79
2019-11-19 20:00:00 5.4 6 Sur 9 Sur 0 -- -- 77
2019-11-19 19:00:00 4.9 4 Sudeste 6 Sudeste 0 -- -- 83
2019-11-19 18:00:00 6.3 2 Sudeste 5 Oeste 0 -- -- 78
2019-11-19 17:00:00 7.4 5 Oeste 13 Oeste 0 -- -- 69
2019-11-19 16:00:00 7.8 8 Oeste 12 Oeste 0 -- -- 63
2019-11-19 15:00:00 7.9 6 Oeste 15 Oeste 0 -- -- 63
2019-11-19 14:00:00 7.8 9 Oeste 15 Sudoeste 0 -- -- 69
2019-11-19 13:00:00 7.5 6 Sudoeste 14 Sudoeste 0 -- -- 72
2019-11-19 12:00:00 7.1 7 Sudoeste 13 Sudeste 0 -- -- 74
2019-11-19 11:00:00 5.8 8 Sudeste 15 Sur 0 -- -- 81
2019-11-19 10:00:00 3.5 8 Sudeste 15 Sudoeste 0 -- -- 89
2019-11-19 09:00:00 2.8 10 Sur 15 Sur 0 -- -- 86
2019-11-19 08:00:00 1.6 10 Sur 12 Sur 0 -- -- 95
2019-11-19 07:00:00 0.7 12 Sudeste 17 Este 0 -- -- 96
2019-11-19 06:00:00 0.8 10 Sudeste 14 Sudeste 0 -- -- 95
2019-11-19 05:00:00 0.6 12 Sudeste 15 Sudeste 0 -- -- 95
2019-11-19 04:00:00 1.7 6 Sudeste 13 Sudeste 0 -- -- 92
2019-11-19 03:00:00 1.8 10 Sudeste 13 Sudeste 0 -- -- 93
2019-11-19 02:00:00 1.4 9 Sudeste 12 Sudeste 0 -- -- 94
2019-11-19 01:00:00 3 5 Sudeste 14 Sudeste 0 -- -- 95
2019-11-19 00:00:00 2.6 7 Sudeste 9 Sudeste 0 -- -- 92
2019-11-18 23:00:00 4.2 3 Sudeste 9 Sudeste 0 -- -- 91
2019-11-18 22:00:00 4 6 Sudeste 10 Este 0 -- -- 93
2019-11-18 21:00:00 4 7 Este 13 Sudeste 0 -- -- 90
2019-11-18 20:00:00 4.3 3 Sur 7 Sur 0 -- -- 85
2019-11-18 19:00:00 5.3 3 Sudoeste 9 Sudoeste 0 -- -- 80
2019-11-18 18:00:00 6.2 5 Sur 13 Sur 0 -- -- 79
2019-11-18 17:00:00 6.7 6 Oeste 14 Oeste 0 -- -- 71
2019-11-18 16:00:00 6.9 6 Oeste 18 Oeste 0 -- -- 73
2019-11-18 15:00:00 6.1 5 Norte 15 Oeste 0 -- -- 76
2019-11-18 14:00:00 6.1 8 Noroeste 14 Noroeste 0 -- -- 79
2019-11-18 13:00:00 5.3 8 Oeste 13 Oeste 0 -- -- 85
2019-11-18 12:00:00 3.5 5 Oeste 12 Oeste 0 -- -- 97
2019-11-18 11:00:00 2.3 9 Oeste 14 Oeste 0 -- -- 98
2019-11-18 10:00:00 1.4 11 Oeste 16 Sudoeste 0 -- -- 99
2019-11-18 09:00:00 0.5 12 Sudoeste 17 Sudoeste 0 -- -- 98
2019-11-18 08:00:00 0.5 7 Sudoeste 12 Sudoeste 0 -- -- 98
2019-11-18 07:00:00 0.5 9 Sudoeste 15 Sudoeste 0 -- -- 98
2019-11-18 06:00:00 0.8 6 Sudoeste 11 Sudoeste 0 -- -- 97
2019-11-18 05:00:00 1.3 7 Sudoeste 11 Sudoeste 0 -- -- 97
2019-11-18 04:00:00 1.2 8 Oeste 16 Oeste 0 -- -- 96
2019-11-18 03:00:00 2.5 12 Oeste 21 Oeste 0 -- -- 95
2019-11-18 02:00:00 2.5 15 Oeste 22 Oeste 0 -- -- 94
2019-11-18 01:00:00 3.1 14 Sudoeste 20 Sudoeste 0 -- -- 94
2019-11-18 00:00:00 2.6 15 Oeste 22 Oeste 0 -- -- 93
2019-11-17 23:00:00 3.1 14 Oeste 22 Oeste 0 -- -- 94
2019-11-17 22:00:00 4 10 Oeste 18 Oeste 0 -- -- 93
2019-11-17 21:00:00 6 10 Oeste 28 Oeste 0 -- -- 92
2019-11-17 20:00:00 6.7 23 Oeste 32 Oeste 0 -- -- 89
2019-11-17 19:00:00 7.2 18 Oeste 26 Oeste 0 -- -- 90
2019-11-17 18:00:00 7.6 21 Oeste 41 Oeste 0 -- -- 87
2019-11-17 17:00:00 8.7 23 Oeste 44 Oeste 0 -- -- 90
2019-11-17 16:00:00 9.1 31 Oeste 53 Oeste 0.2 -- -- 93
2019-11-17 15:00:00 8.2 32 Oeste 43 Oeste 0 -- -- 97
2019-11-17 14:00:00 8.2 31 Oeste 45 Oeste 0 -- -- 96
2019-11-17 13:00:00 7.4 27 Oeste 40 Oeste 1.4 -- -- 97
2019-11-17 12:00:00 6.9 22 Sudoeste 33 Sudoeste 1.4 -- -- 96
2019-11-17 11:00:00 6.3 15 Sudoeste 30 Sur 0.2 -- -- 91
2019-11-17 10:00:00 5.5 17 Sur 26 Sudoeste 0 -- -- 90
2019-11-17 09:00:00 4.2 12 Sur 21 Sur 0 -- -- 93
2019-11-17 08:00:00 3.6 12 Sur 21 Sur 0 -- -- 91
2019-11-17 07:00:00 3.4 12 Sudoeste 22 Sudoeste 0 -- -- 89
2019-11-17 06:00:00 3.7 16 Sudoeste 23 Sudoeste 0 -- -- 84
2019-11-17 05:00:00 3.4 11 Sudoeste 19 Sudoeste 0 -- -- 85
2019-11-17 04:00:00 3.1 13 Sudoeste 20 Sudoeste 0 -- -- 84
2019-11-17 03:00:00 2.9 14 Sudoeste 22 Sudoeste 0 -- -- 84
2019-11-17 02:00:00 2.7 16 Sudoeste 23 Sudoeste 0 -- -- 84
2019-11-17 01:00:00 2.8 14 Sudoeste 19 Sudoeste 0 -- -- 84
2019-11-17 00:00:00 2.3 13 Sudoeste 22 Sudoeste 0 -- -- 85
2019-11-16 23:00:00 1.9 15 Sudoeste 20 Sudoeste 0 -- -- 87
2019-11-16 22:00:00 2.2 10 Sudoeste 19 Sudoeste 0 -- -- 84
2019-11-16 21:00:00 2.5 13 Oeste 24 Oeste 0 -- -- 82
2019-11-16 20:00:00 3.3 12 Oeste 23 Sudoeste 0 -- -- 81
2019-11-16 19:00:00 4 16 Sudoeste 28 Oeste 0 -- -- 81
2019-11-16 18:00:00 4.9 19 Oeste 27 Oeste 0 -- -- 74
2019-11-16 17:00:00 6.1 22 Oeste 32 Oeste 0 -- -- 68
2019-11-16 16:00:00 6.6 18 Oeste 32 Oeste 0 -- -- 65
2019-11-16 15:00:00 6.4 19 Oeste 33 Oeste 0 -- -- 64
2019-11-16 14:00:00 5.6 17 Oeste 29 Oeste 0 -- -- 67
2019-11-16 13:00:00 5.3 12 Oeste 20 Oeste 0 -- -- 71
2019-11-16 12:00:00 4.1 9 Sudoeste 18 Oeste 0 -- -- 77
2019-11-16 11:00:00 2.7 11 Sudoeste 22 Sudoeste 0 -- -- 81
2019-11-16 10:00:00 0.9 10 Sudoeste 15 Sudoeste 0 -- -- 93
2019-11-16 09:00:00 -0.4 10 Sudoeste 20 Sudoeste 0 -- -- 95
2019-11-16 08:00:00 -0.6 12 Sudoeste 16 Sudoeste 0 -- -- 96
2019-11-16 07:00:00 -0.6 10 Sudoeste 15 Sudoeste 0 -- -- 95
2019-11-16 06:00:00 -0.4 10 Sudoeste 16 Sudoeste 0 -- -- 96
2019-11-16 05:00:00 -0.5 11 Sudoeste 14 Sudoeste 0 -- -- 96
2019-11-16 04:00:00 -0.4 11 Sudoeste 15 Sudoeste 0 -- -- 95
2019-11-16 03:00:00 0.2 10 Sudoeste 14 Sudoeste 0 -- -- 94
2019-11-16 02:00:00 0.1 9 Sudoeste 14 Sudoeste 0 -- -- 94
2019-11-16 01:00:00 0.6 10 Oeste 17 Oeste 0 -- -- 93
2019-11-16 00:00:00 1 12 Oeste 19 Oeste 0 -- -- 91
2019-11-15 23:00:00 1.8 12 Oeste 19 Oeste 0 -- -- 88
2019-11-15 22:00:00 2.8 13 Oeste 25 Oeste 0 -- -- 84
2019-11-15 21:00:00 2.9 15 Oeste 22 Oeste 0 -- -- 81
2019-11-15 20:00:00 2.7 13 Oeste 21 Oeste 0 -- -- 83
2019-11-15 19:00:00 3.5 13 Oeste 21 Oeste 0 -- -- 80
2019-11-15 18:00:00 5.1 17 Oeste 41 Oeste 0 -- -- 71
2019-11-15 17:00:00 6.2 32 Oeste 42 Oeste 0 -- -- 64
2019-11-15 16:00:00 6 30 Oeste 40 Oeste 0 -- -- 66
2019-11-15 15:00:00 5.9 31 Oeste 47 Oeste 0 -- -- 64
2019-11-15 14:00:00 5.4 28 Oeste 40 Oeste 0 -- -- 72
2019-11-15 13:00:00 5 28 Oeste 39 Oeste 0 -- -- 73
2019-11-15 12:00:00 4.1 21 Oeste 37 Oeste 0 -- -- 83
2019-11-15 11:00:00 3 21 Oeste 33 Oeste 0 -- -- 89
2019-11-15 10:00:00 1.4 20 Oeste 26 Sudoeste 0 -- -- 97
2019-11-15 09:00:00 0.4 17 Oeste 31 Oeste 0.2 -- -- 97
2019-11-15 08:00:00 0.5 13 Sudoeste 22 Oeste 0 -- -- 96
2019-11-15 07:00:00 0.8 17 Oeste 28 Oeste 0 -- -- 96
2019-11-15 06:00:00 1.6 18 Oeste 34 Oeste 0 -- -- 96
2019-11-15 05:00:00 2 23 Oeste 34 Oeste 0 -- -- 96
2019-11-15 04:00:00 1.7 22 Oeste 35 Oeste 0 -- -- 97
2019-11-15 03:00:00 2.1 28 Oeste 50 Oeste 0 -- -- 95
2019-11-15 02:00:00 2.1 21 Oeste 41 Oeste 0 -- -- 96
2019-11-15 01:00:00 2.4 33 Oeste 47 Oeste 0 -- -- 92
2019-11-15 00:00:00 3 30 Oeste 44 Oeste 0 -- -- 90